[[{"header":{"parameterUnit":"m.s-1","parameterCategory":1,"la1":30.2991,"la2":30.254,"lo1":-89.0895,"lo2":-89.0444,"dy":0.0017,"dx":0.0017,"nx":28,"ny":28,"refTime":"2025-03-17T09:00:00:Z","depth":0,"parameterNumber":2,"parameterNumberName":"U-component_of_WINDS"},"data":[0,0,0,0,0,0,0,0,0,0,0,0,0,0,0,0,0,0,0,0,0,0,0,0,0,0,0,0,0,0,0,0,0,0,0,0,0,0,0,0,0,0,0,0,0,0,0,0,0,0,0,0,0,0,0,0,0,0,1.907,1.9071,0,1.9184,1.9185,1.9186,1.9205,1.9204,1.9203,1.9202,1.9321,1.9325,1.933,0,0,0,0,0,0,0,0,0,0,0,0,0,1.8873,1.8876,1.907,1.9071,1.9073,1.9183,1.9185,1.9186,1.9205,1.9204,1.9203,1.9201,1.932,1.9325,1.933,0,0,0,0,0,0,0,0,0,0,0,0,0,1.897,1.8878,1.9069,1.9095,1.9098,1.9183,1.9185,1.9187,1.9205,1.9204,1.9202,1.9201,1.9319,1.9324,1.9331,1.9398,0,0,1.9349,1.9352,0,0,0,0,0,0,0,0,1.8964,1.8977,1.909,1.9093,1.9097,1.9178,1.9159,1.9258,1.9206,1.9165,1.9202,1.92,1.9275,1.9285,1.931,1.9404,1.9409,1.935,1.9354,1.9356,1.9358,0,0,0,0,0,0,0,1.8957,1.8972,1.9115,1.9092,1.9096,1.9102,1.9114,1.9178,1.9227,1.9168,1.917,1.9183,1.9277,1.9304,1.9313,1.9411,1.935,1.9355,1.9359,1.9361,1.957,1.9572,0,0,0,0,0,0,1.8946,1.8966,1.9111,1.9118,1.9026,1.9107,1.9121,1.9154,1.9226,1.9236,1.9184,1.9183,1.9294,1.9305,1.9317,1.9403,1.9356,1.9362,1.9366,1.9568,1.957,1.9572,0,0,0,0,0,0,1.8941,1.8958,1.9107,1.9043,1.9062,1.9112,1.9149,1.9157,1.9184,1.9238,1.9248,1.9202,1.9293,1.9308,1.9379,1.9407,1.9365,1.937,1.9566,1.9569,1.9571,1.9575,0,0,0,0,0,0,1.8936,1.8957,1.8982,1.9043,1.9065,1.9165,1.9151,1.916,1.9194,1.9194,1.9258,1.9267,1.9293,1.9369,1.9385,1.9415,1.9375,1.9564,1.9567,1.9571,1.9572,1.9577,1.9581,0,0,0,0,0,1.8928,1.8978,1.8983,1.9,1.9098,1.9166,1.9179,1.9208,1.9196,1.9223,1.9258,1.9265,1.9402,1.9376,1.9394,1.9427,1.9562,1.9566,1.957,1.957,1.9576,1.9581,0,0,0,0,0,0,1.8919,1.8987,1.8993,1.9063,1.9109,1.9169,1.9204,1.9213,1.9264,1.9262,1.9296,1.931,1.9379,1.941,1.9381,1.9498,1.9481,1.9489,1.9475,1.9481,1.9486,1.9477,1.938,0,0,0,0,0,1.8925,1.8974,1.9031,1.9088,1.9111,1.9153,1.9184,1.9202,1.9251,1.9271,1.9312,1.936,1.9415,1.9449,1.9502,1.9577,1.9592,1.9608,1.9613,1.9616,1.9623,1.9667,1.9676,1.9586,1.9586,1.9586,0,0,1.8939,1.8981,1.901,1.9087,1.9125,1.9177,1.9169,1.9224,1.9263,1.928,1.9349,1.9381,1.9437,1.951,1.9545,1.9538,1.9651,1.9621,1.9624,1.9629,1.9672,1.9681,1.9688,1.9589,1.9588,1.9588,0,0,1.8989,1.9026,1.9078,1.9116,1.9173,1.9202,1.9214,1.9274,1.9296,1.9365,1.938,1.9428,1.952,1.956,1.9593,1.9661,1.967,1.9677,1.9702,1.9745,1.9752,1.9758,1.9785,1.9793,1.9684,1.9684,1.9684,0,1.8999,1.9076,1.9105,1.9159,1.9194,1.9211,1.9266,1.9301,1.9373,1.9397,1.9388,1.9506,1.9545,1.9629,1.9646,1.9671,1.9688,1.967,1.9748,1.9755,1.9761,1.9787,1.9797,1.9684,1.9684,1.9684,1.9684,0,1.9086,1.914,1.9176,1.9244,1.9283,1.9337,1.9375,1.9411,1.9427,1.9457,1.9529,1.9577,1.964,1.9662,1.9677,1.9749,1.9743,1.9741,1.9725,1.977,1.9795,1.9805,1.9685,1.9685,1.9685,1.9685,0,0,1.9134,1.9218,1.9231,1.9263,1.9328,1.9371,1.9427,1.9489,1.952,1.957,1.9619,1.9697,1.9696,1.9733,1.9754,1.9791,1.9845,1.9785,1.9787,1.9796,1.993,1.9932,1.9943,1.9851,1.9853,1.9854,1.9926,0,1.9193,1.9293,1.9321,1.9406,1.9457,1.9475,1.9525,1.9571,1.9601,1.965,1.9683,1.9739,1.9732,1.9755,1.9793,1.983,1.9873,1.9825,1.9899,1.9901,1.9885,1.9955,1.9958,2.0022,1.9935,1.9937,1.9938,0,1.9276,1.9327,1.9416,1.9477,1.95,1.9543,1.9603,1.9649,1.9703,1.9723,1.9765,1.9782,1.9844,1.9825,1.9911,1.9878,1.9911,1.9934,1.9937,1.9946,1.9923,1.9968,2.0043,2.0054,1.9953,1.9952,1.9951,0,1.9304,1.9395,1.9461,1.9488,1.9559,1.959,1.9621,1.9674,1.971,1.9763,1.9787,1.9847,1.988,1.9927,1.9961,1.9943,2.0046,2.0028,2.0065,2.0064,2.0086,2.0085,2.017,2.0105,2.0105,2.0104,2.0104,0,1.9368,1.9423,1.9474,1.9515,1.9578,1.9611,1.9672,1.9705,1.9752,1.9801,1.982,1.9866,1.9907,1.9959,1.9986,2.0055,2.007,2.0089,2.0096,2.0088,2.0086,2.011,2.0107,2.0107,2.0106,2.0106,2.0105,0,1.941,1.9446,1.952,1.9582,1.9599,1.9643,1.9697,1.9738,1.9769,1.9831,1.9847,1.9897,1.9959,1.9998,2.0077,2.0095,2.0172,2.0176,2.0153,2.0157,2.0192,2.0189,2.0297,2.0313,2.0236,2.0236,2.0237,0,1.9449,1.9491,1.9558,1.9592,1.9624,1.9678,1.9715,1.975,1.9788,1.9854,1.9888,1.9951,2.0004,2.0103,2.0147,2.0209,2.0216,2.025,2.0225,2.0217,2.0219,2.0216,2.0222,2.0254,2.0254,2.0255,2.0255,0,1.9515,1.9531,1.9584,1.9643,1.9687,1.9735,1.9784,1.9811,1.9854,1.9897,1.996,2.0001,2.0083,2.0146,2.0212,2.0246,2.0259,2.0263,2.0275,2.0268,2.0253,2.0264,2.0166,2.026,2.026,2.0259,2.0259,2.0259,1.9558,1.9597,1.9651,1.971,1.975,1.9795,1.9838,1.9874,1.9928,1.9996,2.0014,2.0081,2.0137,2.0226,2.0262,2.0317,2.0312,2.0329,2.0333,2.0337,2.0339,2.0244,2.0328,2.0328,2.0328,2.0328,2.0328,0,1.9627,1.9662,1.9716,1.9783,1.983,1.9837,1.9891,1.993,1.9989,2.0039,2.0091,2.0165,2.0228,2.0277,2.0342,2.0376,2.0384,2.0392,2.039,2.0399,2.0339,2.0322,2.0385,2.0385,2.0385,2.0385,2.0385,2.0385,1.9668,1.9736,1.9759,1.9848,1.9884,1.995,1.9981,2.0023,2.0064,2.0146,2.0198,2.0229,2.028,2.0348,2.0407,2.042,2.0444,2.0451,2.0466,2.0409,2.0403,2.0397,2.0382,2.0456,2.0456,2.0521,2.0522,2.0522]},{"header":{"parameterUnit":"m.s-1","parameterCategory":1,"la1":30.2991,"la2":30.254,"lo1":-89.0895,"lo2":-89.0444,"dy":0.0017,"dx":0.0017,"nx":28,"ny":28,"refTime":"2025-03-17T09:00:00:Z","depth":0,"parameterNumber":3,"parameterNumberName":"V-component_of_WINDS"},"data":[0,0,0,0,0,0,0,0,0,0,0,0,0,0,0,0,0,0,0,0,0,0,0,0,0,0,0,0,0,0,0,0,0,0,0,0,0,0,0,0,0,0,0,0,0,0,0,0,0,0,0,0,0,0,0,0,0,0,-1.8515,-1.8516,0,-1.8619,-1.862,-1.8622,-1.8746,-1.8748,-1.875,-1.8752,-1.8857,-1.8858,-1.8859,0,0,0,0,0,0,0,0,0,0,0,0,0,-1.8423,-1.8424,-1.8514,-1.8516,-1.8517,-1.8619,-1.862,-1.8622,-1.8746,-1.8748,-1.8751,-1.8753,-1.8857,-1.8858,-1.8859,0,0,0,0,0,0,0,0,0,0,0,0,0,-1.8489,-1.8425,-1.8514,-1.8591,-1.8599,-1.8619,-1.862,-1.8622,-1.8746,-1.8749,-1.8751,-1.8754,-1.8856,-1.8858,-1.8859,-1.881,0,0,-1.8864,-1.8864,0,0,0,0,0,0,0,0,-1.8485,-1.8492,-1.8579,-1.8586,-1.8595,-1.8673,-1.8627,-1.8685,-1.8745,-1.869,-1.8752,-1.8756,-1.8793,-1.88,-1.8813,-1.8815,-1.882,-1.8864,-1.8865,-1.8866,-1.8866,0,0,0,0,0,0,0,-1.848,-1.8488,-1.8556,-1.858,-1.859,-1.8621,-1.8634,-1.8639,-1.8724,-1.8695,-1.8704,-1.8715,-1.8798,-1.8812,-1.8817,-1.8821,-1.8864,-1.8865,-1.8866,-1.8867,-1.8793,-1.879,0,0,0,0,0,0,-1.8464,-1.8484,-1.8553,-1.8559,-1.8546,-1.862,-1.8635,-1.8645,-1.8724,-1.8739,-1.8713,-1.8721,-1.8808,-1.8815,-1.8821,-1.8771,-1.8865,-1.8867,-1.8868,-1.8796,-1.8792,-1.8789,0,0,0,0,0,0,-1.8462,-1.8469,-1.8548,-1.8524,-1.8536,-1.8619,-1.863,-1.8645,-1.8659,-1.8738,-1.8753,-1.871,-1.881,-1.8819,-1.8813,-1.8776,-1.8868,-1.8869,-1.8799,-1.8795,-1.8791,-1.8669,0,0,0,0,0,0,-1.8458,-1.8467,-1.8449,-1.8523,-1.8537,-1.8538,-1.8627,-1.8645,-1.8661,-1.8673,-1.874,-1.8754,-1.8813,-1.881,-1.8815,-1.878,-1.887,-1.8803,-1.8797,-1.8792,-1.8677,-1.8661,-1.8648,0,0,0,0,0,-1.8455,-1.8409,-1.8447,-1.8455,-1.8516,-1.8536,-1.8544,-1.8614,-1.8658,-1.8641,-1.8692,-1.8751,-1.878,-1.8809,-1.8815,-1.878,-1.8805,-1.8799,-1.8792,-1.8683,-1.8665,-1.8649,0,0,0,0,0,0,-1.8328,-1.842,-1.8463,-1.8441,-1.848,-1.8557,-1.8537,-1.8591,-1.8618,-1.8627,-1.8713,-1.8727,-1.8711,-1.8745,-1.8776,-1.8739,-1.8802,-1.8796,-1.8717,-1.8699,-1.8685,-1.8677,-1.8871,0,0,0,0,0,-1.8297,-1.8305,-1.8386,-1.8358,-1.8376,-1.8453,-1.8464,-1.8515,-1.8558,-1.8575,-1.8626,-1.8665,-1.8684,-1.8694,-1.8715,-1.8683,-1.8701,-1.8663,-1.8648,-1.8636,-1.863,-1.8619,-1.8604,-1.8768,-1.8768,-1.8768,0,0,-1.8234,-1.8286,-1.8285,-1.8334,-1.837,-1.8377,-1.8465,-1.8468,-1.8475,-1.8575,-1.8573,-1.8612,-1.8663,-1.8644,-1.8639,-1.8672,-1.8589,-1.8628,-1.8618,-1.8618,-1.8611,-1.8595,-1.8581,-1.8764,-1.8764,-1.8765,0,0,-1.8122,-1.8162,-1.8144,-1.8179,-1.8234,-1.8286,-1.8282,-1.8352,-1.8382,-1.8382,-1.8458,-1.8468,-1.8497,-1.853,-1.8551,-1.8457,-1.8513,-1.8461,-1.8385,-1.8373,-1.8361,-1.8349,-1.8317,-1.8304,-1.8455,-1.8455,-1.8455,0,-1.8036,-1.805,-1.8128,-1.8127,-1.8147,-1.8241,-1.8224,-1.8255,-1.8312,-1.8324,-1.8362,-1.8403,-1.8443,-1.8435,-1.8413,-1.8426,-1.8425,-1.8453,-1.8356,-1.8346,-1.8337,-1.8307,-1.8294,-1.8448,-1.8449,-1.845,-1.845,0,-1.7942,-1.7951,-1.793,-1.7986,-1.8004,-1.7995,-1.8072,-1.8082,-1.8132,-1.8181,-1.8181,-1.8234,-1.8268,-1.8271,-1.8319,-1.8271,-1.829,-1.834,-1.8405,-1.8313,-1.8287,-1.8276,-1.8439,-1.8441,-1.8443,-1.8445,0,0,-1.775,-1.7852,-1.7843,-1.7871,-1.7939,-1.7948,-1.7945,-1.798,-1.7987,-1.8025,-1.8025,-1.805,-1.8098,-1.8122,-1.8175,-1.8165,-1.8089,-1.8217,-1.822,-1.8192,-1.8042,-1.8003,-1.7989,-1.8128,-1.8126,-1.8125,-1.8038,0,-1.7651,-1.7651,-1.7723,-1.7703,-1.7713,-1.7804,-1.7802,-1.7844,-1.7891,-1.7907,-1.7959,-1.7975,-1.8037,-1.8052,-1.8046,-1.8099,-1.806,-1.8107,-1.813,-1.8129,-1.8113,-1.7975,-1.7933,-1.7849,-1.8028,-1.8026,-1.8025,0,-1.7534,-1.7567,-1.7549,-1.7622,-1.7629,-1.7625,-1.7665,-1.7679,-1.773,-1.7765,-1.7794,-1.7856,-1.7859,-1.7922,-1.7929,-1.7959,-1.7973,-1.8001,-1.8,-1.8004,-1.8071,-1.7975,-1.7823,-1.781,-1.8009,-1.8011,-1.8012,0,-1.7397,-1.7437,-1.7432,-1.7453,-1.7537,-1.7533,-1.7568,-1.7623,-1.764,-1.7676,-1.7689,-1.7723,-1.7742,-1.7768,-1.7839,-1.7877,-1.7839,-1.7906,-1.7868,-1.7866,-1.7854,-1.7854,-1.7702,-1.7863,-1.7864,-1.7864,-1.7864,0,-1.7278,-1.7263,-1.7372,-1.7368,-1.7356,-1.744,-1.7425,-1.7469,-1.7517,-1.7525,-1.7606,-1.7612,-1.7705,-1.7722,-1.7778,-1.7776,-1.7784,-1.7813,-1.7828,-1.7805,-1.7802,-1.7815,-1.7822,-1.7861,-1.7861,-1.7862,-1.7863,0,-1.7121,-1.7193,-1.7194,-1.7275,-1.7296,-1.7283,-1.7353,-1.7354,-1.7407,-1.7416,-1.7423,-1.7506,-1.7531,-1.7605,-1.7647,-1.7685,-1.7667,-1.7695,-1.7649,-1.7659,-1.7617,-1.762,-1.7469,-1.7454,-1.7623,-1.7622,-1.762,0,-1.704,-1.7031,-1.7113,-1.7124,-1.7156,-1.7174,-1.7193,-1.7277,-1.7294,-1.7354,-1.7348,-1.738,-1.7409,-1.7444,-1.7509,-1.7543,-1.7572,-1.7517,-1.7578,-1.7557,-1.7573,-1.7572,-1.7572,-1.7503,-1.7501,-1.7499,-1.7497,0,-1.6889,-1.6926,-1.6951,-1.699,-1.7011,-1.7045,-1.7084,-1.7089,-1.7183,-1.7198,-1.7225,-1.7248,-1.7294,-1.7324,-1.7369,-1.7407,-1.7468,-1.7479,-1.7472,-1.7448,-1.7423,-1.7437,-1.7614,-1.7481,-1.7483,-1.7484,-1.7485,-1.7485,-1.6768,-1.6766,-1.6824,-1.685,-1.6889,-1.6924,-1.693,-1.6985,-1.7009,-1.7053,-1.7101,-1.7123,-1.7179,-1.7246,-1.7279,-1.7298,-1.7331,-1.732,-1.7318,-1.7314,-1.7304,-1.742,-1.7307,-1.7307,-1.7308,-1.7308,-1.7309,0,-1.6622,-1.6665,-1.6688,-1.6741,-1.6762,-1.682,-1.6867,-1.6881,-1.6899,-1.6946,-1.6975,-1.7007,-1.7038,-1.7107,-1.7145,-1.7147,-1.7177,-1.7154,-1.7155,-1.7163,-1.7272,-1.7275,-1.713,-1.713,-1.713,-1.713,-1.713,-1.713,-1.6548,-1.6548,-1.6592,-1.6613,-1.6657,-1.6679,-1.6701,-1.6735,-1.6774,-1.6806,-1.6833,-1.6878,-1.6935,-1.6978,-1.701,-1.703,-1.704,-1.7009,-1.7037,-1.7138,-1.7155,-1.7171,-1.7174,-1.7011,-1.701,-1.6927,-1.6926,-1.6926]}]]